timestamp,surface_pressure_avg,surface_temp_avg,battery_voltage,lat,long
2023-09-15 00:09:00+00:00,343.7829,18.34,11.93,47.84626,-54.09684
2023-09-15 00:19:00+00:00,338.7297,18.33,11.93,47.84626,-54.09684
2023-09-15 00:29:00+00:00,334.593,18.36,11.93,47.84626,-54.09684
2023-09-15 00:39:00+00:00,333.8197,18.39,11.93,47.84626,-54.09684
2023-09-15 00:49:00+00:00,334.6996,18.37,11.93,47.84626,-54.09684
2023-09-15 00:59:00+00:00,328.3412,18.3,11.93,47.84626,-54.09684
2023-09-15 01:09:00+00:00,323.0563,18.3,11.93,47.84626,-54.09684
2023-09-15 01:19:00+00:00,323.0229,18.3,11.93,47.84626,-54.09684
2023-09-15 01:29:00+00:00,318.3397,18.31,11.93,47.84626,-54.09684
2023-09-15 01:39:00+00:00,309.253,18.31,11.93,47.84626,-54.09684
2023-09-15 01:49:00+00:00,304.2712,18.32,11.93,47.84626,-54.09684
2023-09-15 01:59:00+00:00,303.4697,18.34,11.93,47.84626,-54.09684
2023-09-15 02:09:00+00:00,297.6713,18.33,11.93,47.84626,-54.09684
2023-09-15 02:19:00+00:00,289.0063,18.35,11.93,47.84626,-54.09684
2023-09-15 02:29:00+00:00,282.988,18.37,11.93,47.84626,-54.09684
2023-09-15 02:39:00+00:00,274.8614,18.37,11.93,47.84626,-54.09684
2023-09-15 02:49:00+00:00,266.4997,18.39,11.93,47.84626,-54.09684
2023-09-15 02:59:00+00:00,261.7198,18.39,11.93,47.84626,-54.09684
2023-09-15 03:09:00+00:00,255.1831,18.4,11.93,47.84626,-54.09684
2023-09-15 03:19:00+00:00,248.4264,18.4,11.93,47.84626,-54.09684
2023-09-15 03:29:00+00:00,241.5414,18.39,11.93,47.84626,-54.09684
2023-09-15 03:39:00+00:00,235.6781,18.4,11.93,47.84626,-54.09684
2023-09-15 03:49:00+00:00,227.0431,18.4,11.93,47.84626,-54.09684
2023-09-15 03:59:00+00:00,217.0448,18.4,11.93,47.84626,-54.09684
2023-09-15 04:09:00+00:00,209.8197,18.4,11.93,47.84626,-54.09684
2023-09-15 04:19:00+00:00,203.9715,18.4,11.93,47.84626,-54.09684
2023-09-15 04:29:00+00:00,197.5865,18.4,11.93,47.84626,-54.09684
2023-09-15 04:39:00+00:00,190.8631,18.4,11.93,47.84626,-54.09684
2023-09-15 04:49:00+00:00,186.3881,18.4,11.93,47.84626,-54.09684
2023-09-15 04:59:00+00:00,184.1798,18.4,11.93,47.84626,-54.09684
2023-09-15 05:09:00+00:00,180.3381,18.4,11.93,47.84626,-54.09684
2023-09-15 05:19:00+00:00,178.5448,18.4,11.93,47.84626,-54.09684
2023-09-15 05:29:00+00:00,178.5048,18.4,11.93,47.84626,-54.09684
2023-09-15 05:39:00+00:00,174.5081,18.4,11.93,47.84626,-54.09684
2023-09-15 05:49:00+00:00,172.8115,18.4,11.93,47.84626,-54.09684
2023-09-15 05:59:00+00:00,176.2698,18.4,11.93,47.84626,-54.09684
2023-09-15 06:09:00+00:00,179.4282,18.4,11.93,47.84626,-54.09684
2023-09-15 06:19:00+00:00,181.4281,18.4,11.93,47.84626,-54.09684
2023-09-15 06:29:00+00:00,186.6798,18.4,11.93,47.84626,-54.09684
2023-09-15 06:39:00+00:00,193.1731,18.4,11.93,47.84626,-54.09684
2023-09-15 06:49:00+00:00,194.0031,18.4,11.93,47.84626,-54.09684
2023-09-15 06:59:00+00:00,197.0398,18.4,11.93,47.84626,-54.09684
2023-09-15 07:09:00+00:00,203.3781,18.4,11.93,47.84626,-54.09684
2023-09-15 07:19:01+00:00,205.7331,18.43,11.93,47.84626,-54.09684
2023-09-15 07:29:01+00:00,210.2464,18.47,11.93,47.84626,-54.09684
2023-09-15 07:39:01+00:00,218.2764,18.48,11.93,47.84626,-54.09684
2023-09-15 07:49:01+00:00,222.4764,18.48,11.93,47.84626,-54.09684
2023-09-15 07:59:01+00:00,225.0048,18.48,11.93,47.84626,-54.09684
2023-09-15 08:09:01+00:00,230.2764,18.48,11.93,47.84626,-54.09684
2023-09-15 08:19:00+00:00,237.2081,18.48,11.93,47.84626,-54.09684
2023-09-15 08:29:00+00:00,240.3181,18.48,11.93,47.84626,-54.09684
2023-09-15 08:39:00+00:00,243.7947,18.48,11.93,47.84626,-54.09684
2023-09-15 08:49:00+00:00,247.5581,18.48,11.93,47.84626,-54.09684
2023-09-15 08:59:00+00:00,253.0031,18.47,11.93,47.84626,-54.09684
2023-09-15 09:09:00+00:00,258.7398,18.45,11.93,47.84626,-54.09684
2023-09-15 09:19:00+00:00,266.8597,18.43,11.93,47.84626,-54.09684
2023-09-15 09:29:00+00:00,273.5314,18.43,11.93,47.84626,-54.09684
2023-09-15 09:39:00+00:00,280.6597,18.4,11.93,47.84626,-54.09684
2023-09-15 09:49:00+00:00,284.2714,18.4,11.93,47.84626,-54.09684
2023-09-15 09:59:00+00:00,289.278,18.4,11.93,47.84626,-54.09684
2023-09-15 10:09:00+00:00,295.8664,18.4,11.93,47.84626,-54.09684
2023-09-15 10:19:00+00:00,303.573,18.4,11.93,47.84626,-54.09684
2023-09-15 10:29:00+00:00,307.6313,18.41,11.93,47.84626,-54.09684
2023-09-15 10:39:00+00:00,313.3313,18.42,11.93,47.84626,-54.09684
2023-09-15 10:49:00+00:00,320.093,18.44,11.93,47.84626,-54.09684
2023-09-15 10:59:00+00:00,325.6813,18.42,11.93,47.84626,-54.09684
2023-09-15 11:09:00+00:00,328.9913,18.43,11.93,47.84626,-54.09684
2023-09-15 11:19:00+00:00,336.4313,18.43,11.93,47.84626,-54.09684
2023-09-15 11:29:00+00:00,338.4380000000001,18.43,11.93,47.84626,-54.09684
2023-09-15 11:39:00+00:00,339.088,18.4,11.93,47.84626,-54.09684
2023-09-15 11:49:00+00:00,336.98800000000006,18.4,11.93,47.84626,-54.09684
2023-09-15 11:59:00+00:00,337.0864,18.4,11.93,47.84626,-54.09684
2023-09-15 12:09:00+00:00,339.3096,18.4,11.93,47.84626,-54.09684
2023-09-15 12:19:00+00:00,338.8279,18.4,11.93,47.84626,-54.09684
2023-09-15 12:29:00+00:00,337.6029,18.4,11.93,47.84626,-54.09684
2023-09-15 12:39:00+00:00,338.5714,18.4,11.93,47.84626,-54.09684
2023-09-15 12:49:00+00:00,333.913,18.4,11.93,47.84626,-54.09684
2023-09-15 12:59:00+00:00,329.6246,18.4,11.93,47.84626,-54.09684
2023-09-15 13:09:00+00:00,325.318,18.41,11.93,47.84626,-54.09684
2023-09-15 13:19:00+00:00,321.348,18.43,11.93,47.84626,-54.09684
2023-09-15 13:29:00+00:00,313.8313,18.45,11.93,47.84626,-54.09684
2023-09-15 13:39:00+00:00,309.9497,18.45,11.93,47.84626,-54.09684
2023-09-15 13:49:00+00:00,304.333,18.45,11.93,47.84626,-54.09684
2023-09-15 13:59:00+00:00,296.2113,18.44,11.93,47.84626,-54.09684
2023-09-15 14:09:00+00:00,288.6898,18.46,11.93,47.84626,-54.09684
2023-09-15 14:19:00+00:00,283.683,18.47,11.93,47.84626,-54.09684
2023-09-15 14:29:00+00:00,278.5731,18.42,11.93,47.84626,-54.09684
2023-09-15 14:39:00+00:00,272.1897,18.4,11.93,47.84626,-54.09684
2023-09-15 14:49:00+00:00,267.5514,18.41,11.93,47.84626,-54.09684
2023-09-15 14:59:00+00:00,259.1648,18.44,11.93,47.84626,-54.09684
2023-09-15 15:09:00+00:00,252.3497,18.46,11.93,47.84626,-54.09684
2023-09-15 15:19:00+00:00,245.1931,18.45,11.93,47.84626,-54.09684
2023-09-15 15:29:00+00:00,242.8531,18.42,11.93,47.84626,-54.09684
2023-09-15 15:39:00+00:00,236.1398,18.43,11.93,47.84626,-54.09684
2023-09-15 15:49:00+00:00,227.1881,18.43,11.93,47.84626,-54.09684
2023-09-15 15:59:00+00:00,218.3348,18.44,11.93,47.84626,-54.09684
2023-09-15 16:09:00+00:00,212.7364,18.44,11.93,47.84626,-54.09684
2023-09-15 16:19:00+00:00,205.6331,18.46,11.93,47.84626,-54.09684
2023-09-15 16:29:00+00:00,199.0464,18.48,11.93,47.84626,-54.09684
2023-09-15 16:39:00+00:00,196.9365,18.49,11.93,47.84626,-54.09684
2023-09-15 16:49:00+00:00,193.1098,18.49,11.93,47.84626,-54.09684
2023-09-15 16:59:00+00:00,188.7864,18.5,11.93,47.84626,-54.09684
2023-09-15 17:09:00+00:00,189.9814,18.5,11.93,47.84626,-54.09684
2023-09-15 17:19:00+00:00,189.5931,18.5,11.93,47.84626,-54.09684
2023-09-15 17:29:00+00:00,182.9782,18.5,11.93,47.84626,-54.09684
2023-09-15 17:39:00+00:00,179.6581,18.5,11.93,47.84626,-54.09684
2023-09-15 17:49:00+00:00,182.2332,18.5,11.93,47.84626,-54.09684
2023-09-15 17:59:00+00:00,180.1364,18.5,11.93,47.84626,-54.09684
2023-09-15 18:09:00+00:00,175.3398,18.5,11.93,47.84626,-54.09684
2023-09-15 18:19:00+00:00,180.3531,18.5,11.93,47.84626,-54.09684
2023-09-15 18:29:00+00:00,186.6231,18.5,11.93,47.84626,-54.09684
2023-09-15 18:39:00+00:00,187.7015,18.5,11.93,47.84626,-54.09684
2023-09-15 18:49:00+00:00,191.8364,18.5,11.93,47.84626,-54.09684
2023-09-15 18:59:00+00:00,196.9315,18.5,11.93,47.84626,-54.09684
2023-09-15 19:09:00+00:00,196.7581,18.5,11.93,47.84626,-54.09684
2023-09-15 19:19:00+00:00,196.8515,18.53,11.93,47.84626,-54.09684
2023-09-15 19:29:00+00:00,202.5997,18.55,11.93,47.84626,-54.09684
2023-09-15 19:39:00+00:00,209.9881,18.56,11.93,47.84626,-54.09684
2023-09-15 19:49:00+00:00,211.6964,18.56,11.93,47.84626,-54.09684
2023-09-15 19:59:00+00:00,210.9581,18.57,11.93,47.84626,-54.09684
2023-09-15 20:09:00+00:00,214.0914,18.57,11.93,47.84626,-54.09684
2023-09-15 20:19:00+00:00,220.2681,18.52,11.93,47.84626,-54.09684
2023-09-15 20:29:00+00:00,226.4497,18.5,11.93,47.84626,-54.09684
2023-09-15 20:39:00+00:00,234.2048,18.5,11.93,47.84626,-54.09684
2023-09-15 20:49:00+00:00,238.7381,18.5,11.93,47.84626,-54.09684
2023-09-15 20:59:00+00:00,240.8281,18.49,11.93,47.84626,-54.09684
2023-09-15 21:09:00+00:00,247.9581,18.49,11.93,47.84626,-54.09684
2023-09-15 21:19:00+00:00,257.9464,18.47,11.93,47.84626,-54.09684
2023-09-15 21:29:00+00:00,264.6047,18.43,11.93,47.84626,-54.09684
2023-09-15 21:39:00+00:00,267.3964,18.42,11.93,47.84626,-54.09684
2023-09-15 21:49:00+00:00,277.5163,18.4,11.93,47.84626,-54.09684
2023-09-15 21:59:00+00:00,285.2997,18.4,11.93,47.84626,-54.09684
2023-09-15 22:09:00+00:00,290.648,18.4,11.93,47.84626,-54.09684
2023-09-15 22:19:00+00:00,294.7814,18.4,11.93,47.84626,-54.09684
2023-09-15 22:29:00+00:00,305.538,18.41,11.93,47.84626,-54.09684
2023-09-15 22:39:00+00:00,314.113,18.41,11.93,47.84626,-54.09684
2023-09-15 22:49:00+00:00,316.89799999999997,18.43,11.93,47.84626,-54.09684
2023-09-15 22:59:00+00:00,323.5596,18.45,11.93,47.84626,-54.09684
2023-09-15 23:09:00+00:00,333.6946,18.4,11.93,47.84626,-54.09684
2023-09-15 23:19:00+00:00,338.4046,18.4,11.93,47.84626,-54.09684
2023-09-15 23:29:00+00:00,339.1997,18.39,11.93,47.84626,-54.09684
2023-09-15 23:39:00+00:00,345.2847,18.39,11.93,47.84626,-54.09684
2023-09-15 23:49:00+00:00,350.0197,18.4,11.93,47.84626,-54.09684
2023-09-15 23:59:00+00:00,350.848,18.4,11.93,47.84626,-54.09684
